Location: Hoover
(45.1124°N, 103.2678°W)
Time: 09:34:06
(UTC+00:00)

N. Korean satellite - Pass Details

Date: 25 November 2020
Orbit: 453 x 502 km, 97.2° (Epoch: 19 January)

Event Time Altitude Azimuth Distance (km) Brightness Sun altitude
Rises 13:04:49 0° 2° (N) 2,539 10.0 -10.5°
Reaches altitude 10° 13:07:01 10° 352° (N) 1,664 9.0 -10.1°
Maximum altitude 13:10:12 31° 289° (WNW) 884 7.3 -9.6°
Drops below altitude 10° 13:13:23 10° 227° (SW) 1,677 9.0 -9.1°
Sets 13:15:37 0° 216° (SW) 2,561 10.1 -8.7°
